Retour au catalogue

CZ-6A DEB

ActifPO
NORAD 61340·DEBRIS·🇨🇳 China

Lancé Aug 6, 2024 depuis Taiyuan Satellite Launch Center

Loading…

Prochains Passages (prochaines 24 heures)

TLE

FraisSource: Space-Track

Époque: Sep 14, 2026, 10:31 UTC

1 61340U 24140VD  26257.43823235  .00001005  00000-0  13751-3 0  9993
2 61340  89.0151 259.5997 0165653 207.0501 152.2015 14.68548098108623

Suivez CZ-6A DEB en temps réel avec AllMySat

Download on the App Store